Time,TemperatureF,DewpointF,PressureIn,WindDirection,WindDirectionDegrees,WindSpeedMPH,WindSpeedGustMPH,Humidity,HourlyPrecipIn,Conditions,Clouds,dailyrainin,SoftwareType,DateUTC
2013-12-10 00:00:00,15.4,4.3,30.22,WSW,250,0.0,14.0,61,0.00,,,0.00,Wunderground v.1.13,2013-12-10 07:00:00,
2013-12-10 00:05:00,15.2,4.5,30.22,WSW,251,0.0,14.0,62,0.00,,,0.00,Wunderground v.1.13,2013-12-10 07:05:00,
2013-12-10 00:10:00,15.9,5.5,30.22,WSW,248,0.0,14.0,63,0.00,,,0.00,Wunderground v.1.13,2013-12-10 07:10:00,
2013-12-10 00:15:00,16.2,5.5,30.22,WSW,254,0.0,14.0,62,0.00,,,0.00,Wunderground v.1.13,2013-12-10 07:15:00,
2013-12-10 00:20:00,16.4,5.6,30.22,WNW,284,0.0,14.0,62,0.00,,,0.00,Wunderground v.1.13,2013-12-10 07:20:00,
2013-12-10 00:25:00,17.0,6.6,30.22,WNW,284,1.0,14.0,63,0.00,,,0.00,Wunderground v.1.13,2013-12-10 07:25:00,
2013-12-10 00:30:00,18.0,7.2,30.21,West,267,1.0,1.0,62,0.00,,,0.00,Wunderground v.1.13,2013-12-10 07:30:00,
2013-12-10 00:35:00,18.0,7.2,30.21,WSW,248,0.0,14.0,62,0.00,,,0.00,Wunderground v.1.13,2013-12-10 07:35:00,
2013-12-10 00:40:00,18.0,7.2,30.21,WSW,246,0.0,14.0,62,0.00,,,0.00,Wunderground v.1.13,2013-12-10 07:40:00,
2013-12-10 00:45:00,18.0,6.8,30.21,WSW,246,1.0,14.0,61,0.00,,,0.00,Wunderground v.1.13,2013-12-10 07:45:00,
2013-12-10 00:50:00,17.7,6.5,30.21,WSW,248,2.0,14.0,61,0.00,,,0.00,Wunderground v.1.13,2013-12-10 07:50:00,
2013-12-10 00:55:00,17.2,5.7,30.21,WSW,239,3.0,14.0,60,0.00,,,0.00,Wunderground v.1.13,2013-12-10 07:55:00,
2013-12-10 01:00:00,16.9,5.4,30.22,West,259,4.0,14.0,60,0.00,,,0.00,Wunderground v.1.13,2013-12-10 08:00:00,
2013-12-10 01:05:00,16.7,4.8,30.22,West,274,6.0,6.0,59,0.00,,,0.00,Wunderground v.1.13,2013-12-10 08:05:00,
2013-12-10 01:10:00,16.5,4.3,30.22,WSW,244,7.0,14.0,58,0.00,,,0.00,Wunderground v.1.13,2013-12-10 08:10:00,
2013-12-10 01:15:00,16.2,4.0,30.21,West,263,5.0,14.0,58,0.00,,,0.00,Wunderground v.1.13,2013-12-10 08:15:00,
2013-12-10 01:20:00,15.7,3.9,30.21,SW,227,4.0,14.0,59,0.00,,,0.00,Wunderground v.1.13,2013-12-10 08:20:00,
2013-12-10 01:25:00,15.4,3.6,30.21,WSW,250,2.0,14.0,59,0.00,,,0.00,Wunderground v.1.13,2013-12-10 08:25:00,
2013-12-10 01:30:00,15.1,3.7,30.21,WSW,250,1.0,1.0,60,0.00,,,0.00,Wunderground v.1.13,2013-12-10 08:30:00,
2013-12-10 01:35:00,14.8,3.4,30.21,WSW,250,0.0,14.0,60,0.00,,,0.00,Wunderground v.1.13,2013-12-10 08:35:00,
2013-12-10 01:40:00,14.4,3.0,30.21,WSW,250,0.0,14.0,60,0.00,,,0.00,Wunderground v.1.13,2013-12-10 08:40:00,
2013-12-10 01:45:00,14.1,3.1,30.21,WSW,250,0.0,14.0,61,0.00,,,0.00,Wunderground v.1.13,2013-12-10 08:45:00,
2013-12-10 01:50:00,14.0,3.4,30.21,WSW,250,0.0,14.0,62,0.00,,,0.00,Wunderground v.1.13,2013-12-10 08:50:00,
2013-12-10 01:55:00,13.8,3.2,30.21,SSW,207,1.0,14.0,62,0.00,,,0.00,Wunderground v.1.13,2013-12-10 08:55:00,
2013-12-10 02:00:00,13.8,3.5,30.21,SW,226,3.0,14.0,63,0.00,,,0.00,Wunderground v.1.13,2013-12-10 09:00:00,
2013-12-10 02:05:00,13.8,3.5,30.21,WSW,245,3.0,14.0,63,0.00,,,0.00,Wunderground v.1.13,2013-12-10 09:05:00,
2013-12-10 02:10:00,14.0,4.1,30.21,WSW,250,2.0,2.0,64,0.00,,,0.00,Wunderground v.1.13,2013-12-10 09:10:00,
2013-12-10 02:15:00,14.1,4.1,30.20,West,259,2.0,14.0,64,0.00,,,0.00,Wunderground v.1.13,2013-12-10 09:15:00,
2013-12-10 02:20:00,14.6,4.3,30.20,WNW,291,3.0,14.0,63,0.00,,,0.00,Wunderground v.1.13,2013-12-10 09:20:00,
2013-12-10 02:25:00,14.8,4.1,30.20,WNW,292,3.0,3.0,62,0.00,,,0.00,Wunderground v.1.13,2013-12-10 09:25:00,
2013-12-10 02:30:00,15.4,4.3,30.21,SW,236,2.0,14.0,61,0.00,,,0.00,Wunderground v.1.13,2013-12-10 09:30:00,
2013-12-10 02:35:00,14.8,3.4,30.21,WSW,251,4.0,4.0,60,0.00,,,0.00,Wunderground v.1.13,2013-12-10 09:35:00,
2013-12-10 02:40:00,14.4,3.4,30.21,WNW,290,5.0,5.0,61,0.00,,,0.00,Wunderground v.1.13,2013-12-10 09:40:00,
2013-12-10 02:45:00,14.6,3.6,30.20,West,280,3.0,14.0,61,0.00,,,0.00,Wunderground v.1.13,2013-12-10 09:45:00,
2013-12-10 02:50:00,14.8,3.8,30.20,WSW,250,3.0,14.0,61,0.00,,,0.00,Wunderground v.1.13,2013-12-10 09:50:00,
2013-12-10 02:55:00,14.6,3.6,30.20,SW,230,4.0,14.0,61,0.00,,,0.00,Wunderground v.1.13,2013-12-10 09:55:00,
2013-12-10 03:00:00,14.3,3.3,30.20,West,264,5.0,5.0,61,0.00,,,0.00,Wunderground v.1.13,2013-12-10 10:00:00,
2013-12-10 03:05:00,14.1,3.1,30.20,West,276,3.0,3.0,61,0.00,,,0.00,Wunderground v.1.13,2013-12-10 10:05:00,
2013-12-10 03:10:00,13.8,3.2,30.20,WSW,256,2.0,14.0,62,0.00,,,0.00,Wunderground v.1.13,2013-12-10 10:10:00,
2013-12-10 03:15:00,13.5,2.9,30.19,WSW,252,3.0,3.0,62,0.00,,,0.00,Wunderground v.1.13,2013-12-10 10:15:00,
2013-12-10 03:20:00,12.6,2.4,30.19,WSW,246,4.0,4.0,63,0.00,,,0.00,Wunderground v.1.13,2013-12-10 10:20:00,
2013-12-10 03:25:00,12.1,2.2,30.19,WSW,251,3.0,14.0,64,0.00,,,0.00,Wunderground v.1.13,2013-12-10 10:25:00,
2013-12-10 03:30:00,11.7,2.2,30.19,WSW,250,2.0,14.0,65,0.00,,,0.00,Wunderground v.1.13,2013-12-10 10:30:00,
2013-12-10 03:35:00,11.9,2.7,30.19,WSW,247,2.0,14.0,66,0.00,,,0.00,Wunderground v.1.13,2013-12-10 10:35:00,
2013-12-10 03:40:00,12.1,2.6,30.19,SSW,202,3.0,3.0,65,0.00,,,0.00,Wunderground v.1.13,2013-12-10 10:40:00,
2013-12-10 03:45:00,11.7,2.5,30.18,SW,234,3.0,3.0,66,0.00,,,0.00,Wunderground v.1.13,2013-12-10 10:45:00,
2013-12-10 03:50:00,11.6,2.4,30.18,SW,234,2.0,2.0,66,0.00,,,0.00,Wunderground v.1.13,2013-12-10 10:50:00,
2013-12-10 03:55:00,11.4,2.2,30.18,SW,234,0.0,14.0,66,0.00,,,0.00,Wunderground v.1.13,2013-12-10 10:55:00,
2013-12-10 04:00:00,11.4,2.6,30.19,SW,222,2.0,14.0,67,0.00,,,0.00,Wunderground v.1.13,2013-12-10 11:00:00,
2013-12-10 04:05:00,11.2,2.4,30.19,SW,215,3.0,14.0,67,0.00,,,0.00,Wunderground v.1.13,2013-12-10 11:05:00,
2013-12-10 04:10:00,11.6,2.8,30.19,SW,234,3.0,3.0,67,0.00,,,0.00,Wunderground v.1.13,2013-12-10 11:10:00,
2013-12-10 04:15:00,11.6,2.8,30.18,SW,235,2.0,14.0,67,0.00,,,0.00,Wunderground v.1.13,2013-12-10 11:15:00,
2013-12-10 04:20:00,11.6,2.8,30.18,SW,235,1.0,1.0,67,0.00,,,0.00,Wunderground v.1.13,2013-12-10 11:20:00,
2013-12-10 04:25:00,11.6,2.8,30.18,WSW,237,1.0,14.0,67,0.00,,,0.00,Wunderground v.1.13,2013-12-10 11:25:00,
2013-12-10 04:30:00,11.7,2.8,30.18,WSW,254,2.0,2.0,67,0.00,,,0.00,Wunderground v.1.13,2013-12-10 11:30:00,
2013-12-10 04:35:00,11.7,2.8,30.18,WSW,254,2.0,14.0,67,0.00,,,0.00,Wunderground v.1.13,2013-12-10 11:35:00,
2013-12-10 04:40:00,11.7,2.8,30.18,West,260,2.0,14.0,67,0.00,,,0.00,Wunderground v.1.13,2013-12-10 11:40:00,
2013-12-10 04:45:00,11.4,2.6,30.19,West,271,3.0,14.0,67,0.00,,,0.00,Wunderground v.1.13,2013-12-10 11:45:00,
2013-12-10 04:50:00,10.7,1.9,30.19,WNW,288,3.0,14.0,67,0.00,,,0.00,Wunderground v.1.13,2013-12-10 11:50:00,
2013-12-10 04:55:00,10.4,1.6,30.19,WNW,286,2.0,2.0,67,0.00,,,0.00,Wunderground v.1.13,2013-12-10 11:55:00,
2013-12-10 05:00:00,10.4,1.9,30.19,WNW,284,1.0,14.0,68,0.00,,,0.00,Wunderground v.1.13,2013-12-10 12:00:00,
2013-12-10 05:05:00,10.4,1.9,30.19,WNW,287,1.0,1.0,68,0.00,,,0.00,Wunderground v.1.13,2013-12-10 12:05:00,
2013-12-10 05:10:00,10.4,1.9,30.19,WNW,288,1.0,1.0,68,0.00,,,0.00,Wunderground v.1.13,2013-12-10 12:10:00,
2013-12-10 05:15:00,10.2,1.7,30.18,WNW,288,0.0,14.0,68,0.00,,,0.00,Wunderground v.1.13,2013-12-10 12:15:00,
2013-12-10 05:20:00,10.0,1.5,30.18,WNW,288,0.0,14.0,68,0.00,,,0.00,Wunderground v.1.13,2013-12-10 12:20:00,
2013-12-10 05:25:00,10.0,1.9,30.18,WNW,288,0.0,14.0,69,0.00,,,0.00,Wunderground v.1.13,2013-12-10 12:25:00,
2013-12-10 05:30:00,9.9,1.8,30.19,WNW,288,0.0,14.0,69,0.00,,,0.00,Wunderground v.1.13,2013-12-10 12:30:00,
2013-12-10 05:35:00,10.0,1.9,30.19,WNW,288,0.0,14.0,69,0.00,,,0.00,Wunderground v.1.13,2013-12-10 12:35:00,
2013-12-10 05:40:00,9.9,1.8,30.19,WNW,288,0.0,14.0,69,0.00,,,0.00,Wunderground v.1.13,2013-12-10 12:40:00,
2013-12-10 05:45:00,9.5,1.4,30.20,WNW,288,0.0,14.0,69,0.00,,,0.00,Wunderground v.1.13,2013-12-10 12:45:00,
2013-12-10 05:50:00,9.5,1.7,30.20,WNW,287,0.0,14.0,70,0.00,,,0.00,Wunderground v.1.13,2013-12-10 12:50:00,
2013-12-10 05:55:00,9.7,1.9,30.20,WNW,282,0.0,14.0,70,0.00,,,0.00,Wunderground v.1.13,2013-12-10 12:55:00,
2013-12-10 06:00:00,9.9,2.1,30.20,WNW,282,0.0,14.0,70,0.00,,,0.00,Wunderground v.1.13,2013-12-10 13:00:00,
2013-12-10 06:05:00,9.9,2.1,30.20,WNW,282,0.0,14.0,70,0.00,,,0.00,Wunderground v.1.13,2013-12-10 13:05:00,
2013-12-10 06:10:00,9.9,2.1,30.20,WNW,282,0.0,14.0,70,0.00,,,0.00,Wunderground v.1.13,2013-12-10 13:10:00,
2013-12-10 06:15:00,9.9,2.1,30.20,WNW,282,0.0,14.0,70,0.00,,,0.00,Wunderground v.1.13,2013-12-10 13:15:00,
2013-12-10 06:25:00,9.9,2.1,30.20,WNW,282,0.0,14.0,70,0.00,,,0.00,Wunderground v.1.13,2013-12-10 13:25:00,
2013-12-10 06:30:00,9.7,1.9,30.19,WNW,282,0.0,14.0,70,0.00,,,0.00,Wunderground v.1.13,2013-12-10 13:30:00,
2013-12-10 06:35:00,9.5,2.0,30.19,WNW,282,0.0,14.0,71,0.00,,,0.00,Wunderground v.1.13,2013-12-10 13:35:00,
2013-12-10 06:40:00,9.5,1.7,30.19,WNW,282,0.0,14.0,70,0.00,,,0.00,Wunderground v.1.13,2013-12-10 13:40:00,
2013-12-10 06:45:00,9.3,1.5,30.19,WNW,282,0.0,14.0,70,0.00,,,0.00,Wunderground v.1.13,2013-12-10 13:45:00,
2013-12-10 06:50:00,9.5,2.0,30.19,WNW,282,0.0,14.0,71,0.00,,,0.00,Wunderground v.1.13,2013-12-10 13:50:00,
2013-12-10 06:55:00,10.2,2.4,30.19,WNW,282,0.0,14.0,70,0.00,,,0.00,Wunderground v.1.13,2013-12-10 13:55:00,
2013-12-10 07:00:00,10.5,2.3,30.19,WNW,282,0.0,14.0,69,0.00,,,0.00,Wunderground v.1.13,2013-12-10 14:00:00,
2013-12-10 07:05:00,10.2,1.7,30.19,WNW,282,0.0,14.0,68,0.00,,,0.00,Wunderground v.1.13,2013-12-10 14:05:00,
2013-12-10 07:10:00,9.7,1.6,30.19,WNW,282,0.0,14.0,69,0.00,,,0.00,Wunderground v.1.13,2013-12-10 14:10:00,
2013-12-10 07:15:00,9.2,1.1,30.19,WNW,282,0.0,14.0,69,0.00,,,0.00,Wunderground v.1.13,2013-12-10 14:15:00,
2013-12-10 07:20:00,9.0,0.9,30.19,WNW,282,0.0,14.0,69,0.00,,,0.00,Wunderground v.1.13,2013-12-10 14:20:00,
2013-12-10 07:25:00,8.6,0.8,30.19,WNW,282,0.0,14.0,70,0.00,,,0.00,Wunderground v.1.13,2013-12-10 14:25:00,
2013-12-10 07:30:00,8.6,0.8,30.19,WNW,282,0.0,14.0,70,0.00,,,0.00,Wunderground v.1.13,2013-12-10 14:30:00,
2013-12-10 07:35:00,8.6,1.1,30.19,WNW,282,0.0,14.0,71,0.00,,,0.00,Wunderground v.1.13,2013-12-10 14:35:00,
2013-12-10 07:40:00,9.3,1.8,30.19,WNW,282,0.0,14.0,71,0.00,,,0.00,Wunderground v.1.13,2013-12-10 14:40:00,
2013-12-10 07:45:00,10.4,2.9,30.18,WNW,282,0.0,14.0,71,0.00,,,0.00,Wunderground v.1.13,2013-12-10 14:45:00,
2013-12-10 07:55:00,11.6,3.7,30.18,WNW,282,0.0,14.0,70,0.00,,,0.00,Wunderground v.1.13,2013-12-10 14:55:00,
2013-12-10 08:00:00,12.8,4.5,30.18,SW,236,0.0,14.0,69,0.00,,,0.00,Wunderground v.1.13,2013-12-10 15:00:00,
2013-12-10 08:05:00,13.6,5.0,30.18,SW,236,0.0,14.0,68,0.00,,,0.00,Wunderground v.1.13,2013-12-10 15:05:00,
2013-12-10 08:10:00,14.4,5.4,30.18,SW,236,0.0,14.0,67,0.00,,,0.00,Wunderground v.1.13,2013-12-10 15:10:00,
2013-12-10 08:15:00,15.1,6.1,30.17,SW,236,0.0,14.0,67,0.00,,,0.00,Wunderground v.1.13,2013-12-10 15:15:00,
2013-12-10 08:20:00,15.9,5.9,30.17,SW,236,0.0,14.0,64,0.00,,,0.00,Wunderground v.1.13,2013-12-10 15:20:00,
2013-12-10 08:25:00,16.1,5.7,30.17,SW,236,0.0,14.0,63,0.00,,,0.00,Wunderground v.1.13,2013-12-10 15:25:00,
2013-12-10 08:30:00,16.4,6.0,30.17,WSW,238,0.0,14.0,63,0.00,,,0.00,Wunderground v.1.13,2013-12-10 15:30:00,
2013-12-10 08:35:00,16.7,5.9,30.17,WSW,238,0.0,14.0,62,0.00,,,0.00,Wunderground v.1.13,2013-12-10 15:35:00,
2013-12-10 08:40:00,17.0,5.9,30.17,WSW,239,0.0,14.0,61,0.00,,,0.00,Wunderground v.1.13,2013-12-10 15:40:00,
2013-12-10 08:45:00,17.5,6.3,30.16,WSW,240,0.0,14.0,61,0.00,,,0.00,Wunderground v.1.13,2013-12-10 15:45:00,
2013-12-10 08:50:00,18.0,6.4,30.16,West,265,0.0,14.0,60,0.00,,,0.00,Wunderground v.1.13,2013-12-10 15:50:00,
2013-12-10 08:55:00,18.6,6.6,30.16,West,271,0.0,14.0,59,0.00,,,0.00,Wunderground v.1.13,2013-12-10 15:55:00,
2013-12-10 09:00:00,19.4,7.4,30.15,NW,309,0.0,14.0,59,0.00,,,0.00,Wunderground v.1.13,2013-12-10 16:00:00,
2013-12-10 09:05:00,20.0,7.6,30.15,NW,309,0.0,14.0,58,0.00,,,0.00,Wunderground v.1.13,2013-12-10 16:05:00,
2013-12-10 09:10:00,20.8,7.9,30.15,NW,309,0.0,14.0,57,0.00,,,0.00,Wunderground v.1.13,2013-12-10 16:10:00,
2013-12-10 09:15:00,21.9,8.6,30.15,NW,309,0.0,14.0,56,0.00,,,0.00,Wunderground v.1.13,2013-12-10 16:15:00,
2013-12-10 09:20:00,22.9,8.7,30.15,SW,224,0.0,14.0,54,0.00,,,0.00,Wunderground v.1.13,2013-12-10 16:20:00,
2013-12-10 09:25:00,23.6,8.9,30.15,SW,235,0.0,14.0,53,0.00,,,0.00,Wunderground v.1.13,2013-12-10 16:25:00,
2013-12-10 09:30:00,24.4,9.3,30.16,SSW,200,1.0,14.0,52,0.00,,,0.00,Wunderground v.1.13,2013-12-10 16:30:00,
2013-12-10 09:35:00,24.7,9.1,30.16,SW,227,2.0,14.0,51,0.00,,,0.00,Wunderground v.1.13,2013-12-10 16:35:00,
2013-12-10 09:40:00,25.3,8.8,30.16,SW,224,5.0,5.0,49,0.00,,,0.00,Wunderground v.1.13,2013-12-10 16:40:00,
2013-12-10 09:45:00,26.0,9.0,30.15,SW,220,6.0,6.0,48,0.00,,,0.00,Wunderground v.1.13,2013-12-10 16:45:00,
2013-12-10 09:50:00,26.4,8.9,30.15,WSW,256,5.0,14.0,47,0.00,,,0.00,Wunderground v.1.13,2013-12-10 16:50:00,
2013-12-10 09:55:00,27.5,8.4,30.15,WSW,258,5.0,5.0,44,0.00,,,0.00,Wunderground v.1.13,2013-12-10 16:55:00,
2013-12-10 10:05:00,28.8,8.0,30.15,West,265,1.0,1.0,41,0.00,,,0.00,Wunderground v.1.13,2013-12-10 17:05:00,
2013-12-10 10:10:00,28.5,7.8,30.15,WSW,245,1.0,1.0,41,0.00,,,0.00,Wunderground v.1.13,2013-12-10 17:10:00,
2013-12-10 10:15:00,28.7,8.5,30.13,SW,225,1.0,1.0,42,0.00,,,0.00,Wunderground v.1.13,2013-12-10 17:15:00,
2013-12-10 10:20:00,28.8,8.0,30.13,West,269,0.0,14.0,41,0.00,,,0.00,Wunderground v.1.13,2013-12-10 17:20:00,
2013-12-10 10:25:00,29.0,8.2,30.13,West,269,0.0,14.0,41,0.00,,,0.00,Wunderground v.1.13,2013-12-10 17:25:00,
2013-12-10 10:30:00,29.5,8.7,30.11,West,269,0.0,14.0,41,0.00,,,0.00,Wunderground v.1.13,2013-12-10 17:30:00,
2013-12-10 10:35:00,29.8,8.9,30.11,West,269,0.0,14.0,41,0.00,,,0.00,Wunderground v.1.13,2013-12-10 17:35:00,
2013-12-10 10:45:00,30.7,9.7,30.11,West,269,0.0,14.0,41,0.00,,,0.00,Wunderground v.1.13,2013-12-10 17:45:00,
2013-12-10 10:50:00,31.0,9.5,30.11,West,269,0.0,14.0,40,0.00,,,0.00,Wunderground v.1.13,2013-12-10 17:50:00,
2013-12-10 10:55:00,30.9,9.9,30.11,WNW,286,0.0,14.0,41,0.00,,,0.00,Wunderground v.1.13,2013-12-10 17:55:00,
2013-12-10 11:00:00,31.0,9.5,30.10,NW,317,0.0,14.0,40,0.00,,,0.00,Wunderground v.1.13,2013-12-10 18:00:00,
2013-12-10 11:05:00,31.2,9.6,30.10,NW,317,0.0,14.0,40,0.00,,,0.00,Wunderground v.1.13,2013-12-10 18:05:00,
2013-12-10 11:10:00,31.6,10.0,30.10,NW,317,0.0,14.0,40,0.00,,,0.00,Wunderground v.1.13,2013-12-10 18:10:00,
2013-12-10 11:15:00,31.9,9.7,30.10,NW,317,0.0,14.0,39,0.00,,,0.00,Wunderground v.1.13,2013-12-10 18:15:00,
2013-12-10 11:20:00,32.4,10.2,30.10,NW,317,0.0,14.0,39,0.00,,,0.00,Wunderground v.1.13,2013-12-10 18:20:00,
2013-12-10 11:25:00,32.9,10.0,30.10,NW,317,0.0,14.0,38,0.00,,,0.00,Wunderground v.1.13,2013-12-10 18:25:00,
2013-12-10 11:30:00,33.4,10.5,30.09,NW,317,0.0,14.0,38,0.00,,,0.00,Wunderground v.1.13,2013-12-10 18:30:00,
2013-12-10 11:40:00,34.9,9.3,30.09,NW,317,0.0,14.0,34,0.00,,,0.00,Wunderground v.1.13,2013-12-10 18:40:00,
2013-12-10 11:45:00,35.3,9.0,30.08,NW,317,0.0,14.0,33,0.00,,,0.00,Wunderground v.1.13,2013-12-10 18:45:00,
2013-12-10 11:50:00,35.9,9.5,30.08,NW,317,0.0,14.0,33,0.00,,,0.00,Wunderground v.1.13,2013-12-10 18:50:00,
2013-12-10 11:55:00,36.3,10.6,30.08,NW,318,0.0,14.0,34,0.00,,,0.00,Wunderground v.1.13,2013-12-10 18:55:00,
2013-12-10 12:00:00,36.2,9.8,30.07,NW,318,0.0,14.0,33,0.00,,,0.00,Wunderground v.1.13,2013-12-10 19:00:00,
2013-12-10 12:05:00,36.3,9.9,30.07,NW,318,0.0,14.0,33,0.00,,,0.00,Wunderground v.1.13,2013-12-10 19:05:00,
2013-12-10 12:10:00,36.6,8.8,30.07,NW,319,0.0,14.0,31,0.00,,,0.00,Wunderground v.1.13,2013-12-10 19:10:00,
2013-12-10 12:15:00,36.6,9.5,30.06,NW,319,0.0,14.0,32,0.00,,,0.00,Wunderground v.1.13,2013-12-10 19:15:00,
2013-12-10 12:20:00,37.2,10.0,30.06,NW,319,0.0,14.0,32,0.00,,,0.00,Wunderground v.1.13,2013-12-10 19:20:00,
2013-12-10 12:25:00,37.6,8.9,30.06,NW,316,0.0,14.0,30,0.00,,,0.00,Wunderground v.1.13,2013-12-10 19:25:00,
2013-12-10 12:30:00,37.5,9.6,30.06,NW,317,0.0,14.0,31,0.00,,,0.00,Wunderground v.1.13,2013-12-10 19:30:00,
2013-12-10 12:35:00,36.8,9.7,30.06,NW,323,2.0,2.0,32,0.00,,,0.00,Wunderground v.1.13,2013-12-10 19:35:00,
2013-12-10 12:40:00,36.3,9.9,30.06,NNE,21,3.0,3.0,33,0.00,,,0.00,Wunderground v.1.13,2013-12-10 19:40:00,
2013-12-10 12:50:00,35.9,9.5,30.06,North,350,2.0,2.0,33,0.00,,,0.00,Wunderground v.1.13,2013-12-10 19:50:00,
2013-12-10 12:55:00,36.0,9.6,30.06,NW,317,0.0,14.0,33,0.00,,,0.00,Wunderground v.1.13,2013-12-10 19:55:00,
2013-12-10 13:00:00,36.2,9.8,30.06,NNW,329,1.0,14.0,33,0.00,,,0.00,Wunderground v.1.13,2013-12-10 20:00:00,
2013-12-10 13:05:00,36.3,10.6,30.06,North,360,3.0,14.0,34,0.00,,,0.00,Wunderground v.1.13,2013-12-10 20:05:00,
2013-12-10 13:10:00,36.6,10.8,30.06,NW,319,4.0,14.0,34,0.00,,,0.00,Wunderground v.1.13,2013-12-10 20:10:00,
2013-12-10 13:15:00,36.6,10.2,30.06,NNW,341,2.0,14.0,33,0.00,,,0.00,Wunderground v.1.13,2013-12-10 20:15:00,
2013-12-10 13:20:00,36.3,10.6,30.06,NNW,336,2.0,14.0,34,0.00,,,0.00,Wunderground v.1.13,2013-12-10 20:20:00,
2013-12-10 13:25:00,36.0,8.9,30.06,North,349,2.0,14.0,32,0.00,,,0.00,Wunderground v.1.13,2013-12-10 20:25:00,
2013-12-10 13:30:00,35.9,9.5,30.06,North,360,2.0,2.0,33,0.00,,,0.00,Wunderground v.1.13,2013-12-10 20:30:00,
2013-12-10 13:35:00,35.8,10.8,30.06,North,351,2.0,2.0,35,0.00,,,0.00,Wunderground v.1.13,2013-12-10 20:35:00,
2013-12-10 13:40:00,35.8,10.1,30.06,North,349,1.0,1.0,34,0.00,,,0.00,Wunderground v.1.13,2013-12-10 20:40:00,
2013-12-10 13:45:00,35.9,8.9,30.06,NNW,336,2.0,2.0,32,0.00,,,0.00,Wunderground v.1.13,2013-12-10 20:45:00,
2013-12-10 13:50:00,36.0,8.9,30.06,NNW,348,2.0,2.0,32,0.00,,,0.00,Wunderground v.1.13,2013-12-10 20:50:00,
2013-12-10 13:55:00,36.2,9.1,30.06,NNE,15,1.0,14.0,32,0.00,,,0.00,Wunderground v.1.13,2013-12-10 20:55:00,
2013-12-10 14:00:00,36.2,9.1,30.06,NW,325,1.0,14.0,32,0.00,,,0.00,Wunderground v.1.13,2013-12-10 21:00:00,
2013-12-10 14:05:00,36.3,11.9,30.06,NNW,329,2.0,2.0,36,0.00,,,0.00,Wunderground v.1.13,2013-12-10 21:05:00,
2013-12-10 14:10:00,36.8,11.7,30.06,NW,320,1.0,1.0,35,0.00,,,0.00,Wunderground v.1.13,2013-12-10 21:10:00,
2013-12-10 14:15:00,37.2,13.3,30.05,NNW,329,1.0,1.0,37,0.00,,,0.00,Wunderground v.1.13,2013-12-10 21:15:00,
2013-12-10 14:20:00,37.6,13.0,30.05,WNW,288,1.0,1.0,36,0.00,,,0.00,Wunderground v.1.13,2013-12-10 21:20:00,
2013-12-10 14:25:00,38.0,14.0,30.05,NW,307,3.0,14.0,37,0.00,,,0.00,Wunderground v.1.13,2013-12-10 21:25:00,
2013-12-10 14:30:00,38.5,14.4,30.05,West,271,6.0,14.0,37,0.00,,,0.00,Wunderground v.1.13,2013-12-10 21:30:00,
2013-12-10 14:35:00,38.5,13.8,30.05,WNW,302,6.0,6.0,36,0.00,,,0.00,Wunderground v.1.13,2013-12-10 21:35:00,
2013-12-10 14:40:00,38.3,14.9,30.05,WNW,300,6.0,14.0,38,0.00,,,0.00,Wunderground v.1.13,2013-12-10 21:40:00,
2013-12-10 14:45:00,38.2,14.8,30.05,North,351,6.0,6.0,38,0.00,,,0.00,Wunderground v.1.13,2013-12-10 21:45:00,
2013-12-10 14:50:00,37.9,15.1,30.05,NW,304,6.0,6.0,39,0.00,,,0.00,Wunderground v.1.13,2013-12-10 21:50:00,
2013-12-10 15:00:00,37.6,14.8,30.05,NW,316,4.0,4.0,39,0.00,,,0.00,Wunderground v.1.13,2013-12-10 22:00:00,
2013-12-10 15:05:00,37.6,15.4,30.05,NW,309,3.0,3.0,40,0.00,,,0.00,Wunderground v.1.13,2013-12-10 22:05:00,
2013-12-10 15:10:00,37.5,14.8,30.05,NW,319,3.0,3.0,39,0.00,,,0.00,Wunderground v.1.13,2013-12-10 22:10:00,
2013-12-10 15:15:00,37.3,15.7,30.06,NW,321,4.0,14.0,41,0.00,,,0.00,Wunderground v.1.13,2013-12-10 22:15:00,
2013-12-10 15:20:00,37.3,15.7,30.06,NW,321,5.0,5.0,41,0.00,,,0.00,Wunderground v.1.13,2013-12-10 22:20:00,
2013-12-10 15:25:00,37.2,16.2,30.06,WNW,288,8.0,8.0,42,0.00,,,0.00,Wunderground v.1.13,2013-12-10 22:25:00,
2013-12-10 15:30:00,37.2,16.2,30.07,NW,306,9.0,9.0,42,0.00,,,0.00,Wunderground v.1.13,2013-12-10 22:30:00,
2013-12-10 15:35:00,37.0,16.0,30.07,WNW,286,7.0,14.0,42,0.00,,,0.00,Wunderground v.1.13,2013-12-10 22:35:00,
2013-12-10 15:40:00,37.0,16.5,30.07,NW,325,7.0,7.0,43,0.00,,,0.00,Wunderground v.1.13,2013-12-10 22:40:00,
2013-12-10 15:45:00,36.9,16.5,30.07,NW,323,8.0,8.0,43,0.00,,,0.00,Wunderground v.1.13,2013-12-10 22:45:00,
2013-12-10 15:50:00,37.0,16.5,30.07,NNW,338,6.0,14.0,43,0.00,,,0.00,Wunderground v.1.13,2013-12-10 22:50:00,
2013-12-10 15:55:00,36.9,16.5,30.07,NW,320,7.0,14.0,43,0.00,,,0.00,Wunderground v.1.13,2013-12-10 22:55:00,
2013-12-10 16:00:00,36.8,16.9,30.07,WNW,287,7.0,14.0,44,0.00,,,0.00,Wunderground v.1.13,2013-12-10 23:00:00,
2013-12-10 16:05:00,36.8,16.9,30.07,NW,309,6.0,6.0,44,0.00,,,0.00,Wunderground v.1.13,2013-12-10 23:05:00,
2013-12-10 16:15:00,36.3,17.0,30.08,NW,309,3.0,14.0,45,0.00,,,0.00,Wunderground v.1.13,2013-12-10 23:15:00,
2013-12-10 16:20:00,36.2,17.4,30.08,WNW,282,4.0,4.0,46,0.00,,,0.00,Wunderground v.1.13,2013-12-10 23:20:00,
2013-12-10 16:25:00,36.2,17.4,30.08,NW,313,5.0,17.0,46,0.00,,,0.00,Wunderground v.1.13,2013-12-10 23:25:00,
2013-12-10 16:30:00,35.9,17.1,30.08,WNW,292,6.0,6.0,46,0.00,,,0.00,Wunderground v.1.13,2013-12-10 23:30:00,
2013-12-10 16:35:00,35.8,17.0,30.08,NW,319,6.0,14.0,46,0.00,,,0.00,Wunderground v.1.13,2013-12-10 23:35:00,
2013-12-10 16:40:00,35.8,17.0,30.08,NW,313,7.0,14.0,46,0.00,,,0.00,Wunderground v.1.13,2013-12-10 23:40:00,
2013-12-10 16:45:00,35.5,16.7,30.09,NW,311,7.0,7.0,46,0.00,,,0.00,Wunderground v.1.13,2013-12-10 23:45:00,
2013-12-10 16:50:00,35.3,16.6,30.09,WNW,291,4.0,14.0,46,0.00,,,0.00,Wunderground v.1.13,2013-12-10 23:50:00,
2013-12-10 16:55:00,35.2,16.5,30.09,West,276,3.0,14.0,46,0.00,,,0.00,Wunderground v.1.13,2013-12-10 23:55:00,
2013-12-10 17:00:00,34.9,16.7,30.09,NW,324,3.0,14.0,47,0.00,,,0.00,Wunderground v.1.13,2013-12-11 00:00:00,
2013-12-10 17:05:00,34.7,16.5,30.09,NW,317,2.0,2.0,47,0.00,,,0.00,Wunderground v.1.13,2013-12-11 00:05:00,
2013-12-10 17:15:00,34.3,16.6,30.10,NW,321,2.0,2.0,48,0.00,,,0.00,Wunderground v.1.13,2013-12-11 00:15:00,
2013-12-10 17:20:00,34.1,16.9,30.10,NW,311,3.0,3.0,49,0.00,,,0.00,Wunderground v.1.13,2013-12-11 00:20:00,
2013-12-10 17:25:00,34.0,16.8,30.10,NNW,344,4.0,14.0,49,0.00,,,0.00,Wunderground v.1.13,2013-12-11 00:25:00,
2013-12-10 17:30:00,33.8,17.1,30.10,NW,305,6.0,6.0,50,0.00,,,0.00,Wunderground v.1.13,2013-12-11 00:30:00,
2013-12-10 17:35:00,33.7,17.0,30.11,NW,308,9.0,18.0,50,0.00,,,0.00,Wunderground v.1.13,2013-12-11 00:35:00,
2013-12-10 17:40:00,33.4,16.7,30.11,NW,313,9.0,9.0,50,0.00,,,0.00,Wunderground v.1.13,2013-12-11 00:40:00,
2013-12-10 17:45:00,33.1,16.9,30.12,WNW,296,5.0,5.0,51,0.00,,,0.00,Wunderground v.1.13,2013-12-11 00:45:00,
2013-12-10 17:50:00,32.9,16.7,30.12,NNW,331,3.0,14.0,51,0.00,,,0.00,Wunderground v.1.13,2013-12-11 00:50:00,
2013-12-10 17:55:00,32.8,17.1,30.12,NNW,330,3.0,3.0,52,0.00,,,0.00,Wunderground v.1.13,2013-12-11 00:55:00,
2013-12-10 18:00:00,32.7,17.0,30.13,NW,316,2.0,14.0,52,0.00,,,0.00,Wunderground v.1.13,2013-12-11 01:00:00,
2013-12-10 18:05:00,32.5,16.8,30.13,NW,320,3.0,3.0,52,0.00,,,0.00,Wunderground v.1.13,2013-12-11 01:05:00,
2013-12-10 18:10:00,32.5,16.8,30.13,NW,320,3.0,3.0,52,0.00,,,0.00,Wunderground v.1.13,2013-12-11 01:10:00,
2013-12-10 18:15:00,32.5,16.8,30.14,NW,315,2.0,2.0,52,0.00,,,0.00,Wunderground v.1.13,2013-12-11 01:15:00,
2013-12-10 18:20:00,32.4,16.7,30.14,NW,305,3.0,14.0,52,0.00,,,0.00,Wunderground v.1.13,2013-12-11 01:20:00,
2013-12-10 18:25:00,32.5,16.8,30.14,NW,322,5.0,14.0,52,0.00,,,0.00,Wunderground v.1.13,2013-12-11 01:25:00,
2013-12-10 18:30:00,32.7,17.0,30.14,NNW,332,8.0,18.0,52,0.00,,,0.00,Wunderground v.1.13,2013-12-11 01:30:00,
2013-12-10 18:35:00,32.7,17.0,30.14,NNW,343,9.0,9.0,52,0.00,,,0.00,Wunderground v.1.13,2013-12-11 01:35:00,
2013-12-10 18:45:00,32.2,17.0,30.15,NW,308,5.0,5.0,53,0.00,,,0.00,Wunderground v.1.13,2013-12-11 01:45:00,
2013-12-10 18:50:00,31.9,17.1,30.15,NW,306,3.0,3.0,54,0.00,,,0.00,Wunderground v.1.13,2013-12-11 01:50:00,
2013-12-10 18:55:00,31.6,16.8,30.15,NW,309,2.0,2.0,54,0.00,,,0.00,Wunderground v.1.13,2013-12-11 01:55:00,
2013-12-10 19:00:00,31.5,17.2,30.16,NNW,335,4.0,4.0,55,0.00,,,0.00,Wunderground v.1.13,2013-12-11 02:00:00,
2013-12-10 19:05:00,31.3,17.4,30.16,NW,317,3.0,14.0,56,0.00,,,0.00,Wunderground v.1.13,2013-12-11 02:05:00,
2013-12-10 19:10:00,30.9,17.4,30.16,NNW,329,1.0,14.0,57,0.00,,,0.00,Wunderground v.1.13,2013-12-11 02:10:00,
2013-12-10 19:15:00,30.6,17.6,30.16,NNW,327,2.0,14.0,58,0.00,,,0.00,Wunderground v.1.13,2013-12-11 02:15:00,
2013-12-10 19:20:00,30.1,17.5,30.16,NNW,336,3.0,14.0,59,0.00,,,0.00,Wunderground v.1.13,2013-12-11 02:20:00,
2013-12-10 19:25:00,29.8,17.6,30.16,NNW,329,3.0,14.0,60,0.00,,,0.00,Wunderground v.1.13,2013-12-11 02:25:00,
2013-12-10 19:30:00,29.5,17.7,30.18,North,360,4.0,4.0,61,0.00,,,0.00,Wunderground v.1.13,2013-12-11 02:30:00,
2013-12-10 19:35:00,29.4,17.6,30.18,NW,314,5.0,5.0,61,0.00,,,0.00,Wunderground v.1.13,2013-12-11 02:35:00,
2013-12-10 19:40:00,29.3,17.5,30.18,NNW,334,4.0,14.0,61,0.00,,,0.00,Wunderground v.1.13,2013-12-11 02:40:00,
2013-12-10 19:45:00,29.1,17.7,30.19,NNW,330,3.0,14.0,62,0.00,,,0.00,Wunderground v.1.13,2013-12-11 02:45:00,
2013-12-10 19:50:00,28.8,17.8,30.19,NNW,340,2.0,2.0,63,0.00,,,0.00,Wunderground v.1.13,2013-12-11 02:50:00,
2013-12-10 19:55:00,28.7,17.7,30.19,NNW,338,1.0,14.0,63,0.00,,,0.00,Wunderground v.1.13,2013-12-11 02:55:00,
2013-12-10 20:00:00,28.5,17.9,30.20,NNE,15,1.0,1.0,64,0.00,,,0.00,Wunderground v.1.13,2013-12-11 03:00:00,
2013-12-10 20:05:00,28.5,17.9,30.20,NNW,336,1.0,1.0,64,0.00,,,0.00,Wunderground v.1.13,2013-12-11 03:05:00,
2013-12-10 20:10:00,28.5,17.9,30.20,NW,323,0.0,14.0,64,0.00,,,0.00,Wunderground v.1.13,2013-12-11 03:10:00,
2013-12-10 20:15:00,28.5,18.2,30.22,NNW,329,1.0,14.0,65,0.00,,,0.00,Wunderground v.1.13,2013-12-11 03:15:00,
2013-12-10 20:20:00,28.8,18.9,30.22,NW,325,3.0,3.0,66,0.00,,,0.00,Wunderground v.1.13,2013-12-11 03:20:00,
2013-12-10 20:25:00,29.0,19.1,30.22,NNW,327,3.0,14.0,66,0.00,,,0.00,Wunderground v.1.13,2013-12-11 03:25:00,
2013-12-10 20:30:00,29.3,19.7,30.22,NNW,336,5.0,5.0,67,0.00,,,0.00,Wunderground v.1.13,2013-12-11 03:30:00,
2013-12-10 20:35:00,29.3,20.4,30.22,NNW,348,6.0,6.0,69,0.00,,,0.00,Wunderground v.1.13,2013-12-11 03:35:00,
2013-12-10 20:40:00,29.3,20.4,30.22,North,351,6.0,6.0,69,0.00,,,0.00,Wunderground v.1.13,2013-12-11 03:40:00,
2013-12-10 20:45:00,29.1,20.5,30.22,NNW,334,8.0,14.0,70,0.00,,,0.00,Wunderground v.1.13,2013-12-11 03:45:00,
2013-12-10 20:50:00,29.0,20.8,30.24,North,351,9.0,9.0,71,0.00,,,0.00,Wunderground v.1.13,2013-12-11 03:50:00,
2013-12-10 20:55:00,29.1,20.9,30.24,NNW,343,10.0,10.0,71,0.00,,,0.00,Wunderground v.1.13,2013-12-11 03:55:00,
2013-12-10 21:00:00,28.8,19.9,30.24,North,360,12.0,12.0,69,0.00,,,0.00,Wunderground v.1.13,2013-12-11 04:00:00,
2013-12-10 21:05:00,28.4,19.9,30.25,North,351,12.0,12.0,70,0.00,,,0.00,Wunderground v.1.13,2013-12-11 04:05:00,
2013-12-10 21:10:00,27.9,18.7,30.25,NNE,23,10.0,16.0,68,0.00,,,0.00,Wunderground v.1.13,2013-12-11 04:10:00,
2013-12-10 21:15:00,27.3,18.5,30.27,NE,53,10.0,10.0,69,0.00,,,0.00,Wunderground v.1.13,2013-12-11 04:15:00,
2013-12-10 21:20:00,27.0,18.5,30.27,North,351,9.0,9.0,70,0.00,,,0.00,Wunderground v.1.13,2013-12-11 04:20:00,
2013-12-10 21:25:00,26.4,18.3,30.27,North,360,7.0,7.0,71,0.00,,,0.00,Wunderground v.1.13,2013-12-11 04:25:00,
2013-12-10 21:30:00,26.0,17.9,30.28,North,5,7.0,14.0,71,0.00,,,0.00,Wunderground v.1.13,2013-12-11 04:30:00,
2013-12-10 21:35:00,25.6,17.8,30.28,North,10,7.0,7.0,72,0.00,,,0.00,Wunderground v.1.13,2013-12-11 04:35:00,
2013-12-10 21:40:00,25.0,17.6,30.28,NNW,348,6.0,6.0,73,0.00,,,0.00,Wunderground v.1.13,2013-12-11 04:40:00,
2013-12-10 21:45:00,24.5,17.4,30.30,NNE,14,6.0,6.0,74,0.00,,,0.00,Wunderground v.1.13,2013-12-11 04:45:00,
2013-12-10 21:50:00,24.1,17.0,30.30,North,351,5.0,14.0,74,0.00,,,0.00,Wunderground v.1.13,2013-12-11 04:50:00,
2013-12-10 21:55:00,23.9,17.1,30.30,NNW,348,6.0,14.0,75,0.00,,,0.00,Wunderground v.1.13,2013-12-11 04:55:00,
2013-12-10 22:00:00,23.6,16.8,30.31,North,360,5.0,5.0,75,0.00,,,0.00,Wunderground v.1.13,2013-12-11 05:00:00,
2013-12-10 22:05:00,23.3,16.5,30.31,NNW,336,4.0,4.0,75,0.00,,,0.00,Wunderground v.1.13,2013-12-11 05:05:00,
2013-12-10 22:10:00,23.2,16.8,30.31,North,360,4.0,4.0,76,0.00,,,0.00,Wunderground v.1.13,2013-12-11 05:10:00,
2013-12-10 22:15:00,22.9,16.5,30.32,NW,324,3.0,14.0,76,0.00,,,0.00,Wunderground v.1.13,2013-12-11 05:15:00,
2013-12-10 22:20:00,22.7,16.3,30.32,North,351,3.0,3.0,76,0.00,,,0.00,Wunderground v.1.13,2013-12-11 05:20:00,
2013-12-10 22:25:00,22.2,15.5,30.32,North,11,4.0,14.0,75,0.00,,,0.00,Wunderground v.1.13,2013-12-11 05:25:00,
2013-12-10 22:30:00,21.6,14.6,30.34,North,350,4.0,4.0,74,0.00,,,0.00,Wunderground v.1.13,2013-12-11 05:30:00,
2013-12-10 22:35:00,21.1,13.8,30.34,NNW,330,4.0,14.0,73,0.00,,,0.00,Wunderground v.1.13,2013-12-11 05:35:00,
2013-12-10 22:40:00,21.0,13.4,30.34,NNE,19,5.0,5.0,72,0.00,,,0.00,Wunderground v.1.13,2013-12-11 05:40:00,
2013-12-10 22:45:00,20.8,12.9,30.34,NNW,342,6.0,6.0,71,0.00,,,0.00,Wunderground v.1.13,2013-12-11 05:45:00,
2013-12-10 22:50:00,20.6,12.4,30.34,North,351,3.0,3.0,70,0.00,,,0.00,Wunderground v.1.13,2013-12-11 05:50:00,
2013-12-10 23:00:00,20.2,12.3,30.36,North,360,4.0,14.0,71,0.00,,,0.00,Wunderground v.1.13,2013-12-11 06:00:00,
2013-12-10 23:05:00,20.0,11.8,30.36,North,351,4.0,4.0,70,0.00,,,0.00,Wunderground v.1.13,2013-12-11 06:05:00,
2013-12-10 23:10:00,19.7,11.5,30.36,NNW,331,3.0,14.0,70,0.00,,,0.00,Wunderground v.1.13,2013-12-11 06:10:00,
2013-12-10 23:15:00,19.5,11.3,30.36,NNE,28,3.0,14.0,70,0.00,,,0.00,Wunderground v.1.13,2013-12-11 06:15:00,
2013-12-10 23:20:00,19.5,11.3,30.36,NNW,342,4.0,14.0,70,0.00,,,0.00,Wunderground v.1.13,2013-12-11 06:20:00,
2013-12-10 23:25:00,19.4,11.5,30.36,NE,40,5.0,14.0,71,0.00,,,0.00,Wunderground v.1.13,2013-12-11 06:25:00,
2013-12-10 23:30:00,19.1,11.6,30.37,North,351,4.0,4.0,72,0.00,,,0.00,Wunderground v.1.13,2013-12-11 06:30:00,
2013-12-10 23:35:00,18.6,11.4,30.37,NNE,30,2.0,14.0,73,0.00,,,0.00,Wunderground v.1.13,2013-12-11 06:35:00,
2013-12-10 23:40:00,18.4,11.5,30.37,NNE,13,2.0,14.0,74,0.00,,,0.00,Wunderground v.1.13,2013-12-11 06:40:00,
2013-12-10 23:45:00,18.3,11.4,30.37,NNE,29,5.0,14.0,74,0.00,,,0.00,Wunderground v.1.13,2013-12-11 06:45:00,
2013-12-10 23:50:00,18.0,11.4,30.36,NNE,21,5.0,5.0,75,0.00,,,0.00,Wunderground v.1.13,2013-12-11 06:50:00,
2013-12-10 23:55:00,18.0,11.7,30.36,NNE,25,5.0,14.0,76,0.00,,,0.00,Wunderground v.1.13,2013-12-11 06:55:00,